User: anonymous   Login
Location: Dover
(39.1580°N, 75.5250°W)
Time: 15:34:10
(UTC-04:00)
Language:

Cosmos 1437 Rocket - Orbit

View from above orbital plane
View from above orbital plane
View from above satellite
View from above satellite

Ground track
Ground track

The orbit data is extracted from the following two-line orbital elements,

1 13771U 83003B   15088.45300697  .00004921  00000-0  31520-3 0  9999
2 13771 081.1583 216.8786 0030954 169.7671 190.4191 15.07972462751510
Epoch (UTC): 29 March 2015 10:52:19
Eccentricity: 0.0030954
inclination: 81.1583°
perigee height: 521 km
apogee height: 564 km
right ascension of ascending node: 216.8786°
argument of perigee: 169.7671°
revolutions per day: 15.07972462
mean anomaly at epoch: 190.4191°
orbit number at epoch: 75151

The dashed part of the orbit path shows where the satellite is in the earth's shadow,  

DLR